Regional Weather Roundup
Issued by NWS

Home | Current Version | Previous Version | Text Only | Print | Product List | Glossary Off
Versions: 1 2 3 4 5 6 7 8 9 10 11 12 13 14 15 16 17 18 19 20 21 22 23 24 25 26 27 28 29 30 31 32 33 34 35 36 37 38 39 40 41 42 43 44 45 46 47 48 49 50

246
ASUS43 KLMK 200010
RWRKY
KENTUCKY REGIONAL WEATHER ROUNDUP
NATIONAL WEATHER SERVICE LOUISVILLE KY
800 PM EDT SAT AUG 19 2017

NOTE "FAIR" INDICATES FEW OR NO CLOUDS BELOW 12,000 FEET
WITH NO SIGNIFICANT WEATHER AND/OR OBSTRUCTIONS TO VISIBILITY.

KYZ001>023-026-027-061>063-070>075-200100-
WESTERN AND SOUTH CENTRAL KENTUCKY

CITY           SKY/WX    TMP DP  RH WIND       PRES   REMARKS
PADUCAH        CLEAR     85  70  60 CALM      29.92R
HENDERSON      CLEAR     84  73  69 CALM      29.93S HX  90
OWENSBORO      CLEAR     87  70  56 W3        29.93S HX  92
HOPKINSVILLE   CLEAR     83  71  67 E7        29.94S
BOWLING GREEN  CLEAR     85  70  60 SW8       29.95S
GLASGOW        CLEAR     82  67  60 CALM      29.97R
$$

KYZ024-025-028>034-038-045-046-053-200100-
NORTH CENTRAL KENTUCKY

CITY           SKY/WX    TMP DP  RH WIND       PRES   REMARKS
LOUISVILLE/SDF PTCLDY    86  65  49 W7        29.94R
LOUISVILLE/LOU CLEAR     84  67  56 SW7       29.94S
FORT KNOX      PTCLDY    84  69  59 CALM      29.94R
$$

KYZ035>037-039>044-047>052-055>060-089>105-200100-
NORTHEAST KENTUCKY

CITY           SKY/WX    TMP DP  RH WIND       PRES   REMARKS
LEXINGTON      MOCLDY    80  67  64 SW6       29.98R
COVINGTON      PTCLDY    82  68  62 SW5       29.95S
FRANKFORT      PTCLDY    82  68  62 CALM      29.95S
$$

KYZ054-064>069-076>088-106>120-200100-
SOUTHEAST KENTUCKY

CITY           SKY/WX    TMP DP  RH WIND       PRES   REMARKS
JACKSON        CLEAR     79  67  66 CALM      30.01R
LONDON         CLEAR     81  66  60 NW3       30.00R
SOMERSET       PTCLDY    79  63  57 W3        30.00R
MIDDLESBORO    PTCLDY    80  70  72 CALM      30.01R
MONTICELLO     CLEAR     76  72  87 CALM      30.01R
$$





USA.gov is the U.S. government's official web portal to all federal, state and local government web resources and services.